Regional Weather Roundup
Issued by NWS

Home | Current Version | Previous Version | Text Only | Print | Product List | Glossary On
Versions: 1 2 3 4 5 6 7 8 9 10 11 12 13 14 15 16 17 18 19 20 21 22 23 24 25 26 27 28 29 30 31 32 33 34 35 36 37 38 39 40 41 42 43 44 45 46 47 48 49 50
000
ASUS46 KLOX 210412
RWRCA

SOUTHERN CALIFORNIA WEATHER ROUNDUP
NATIONAL WEATHER SERVICE OXNARD CALIFORNIA
900 PM PDT SAT SEP 20 2014

NOTE: "FAIR" INDICATES FEW OR NO CLOUDS BELOW 12,000 FEET WITH NO
SIGNIFICANT WEATHER AND/OR OBSTRUCTIONS TO VISIBILITY.

  -  STATIONS PRECEEDED BY AN ASTERISK (*) ARE NOT NWS OR FAA
     STATIONS AND ARE NOT SUBJECT TO NWS AND FAA QUALITY CONTROL.

CAZ041-042-087-210500-
LA AND ORANGE COUNTY COASTAL AREAS


CITY           SKY/WX    TMP DP  RH WIND       PRES   REMARKS
L.A. DOWNTOWN  CLEAR     69  60  73 CALM      29.92R
L.A. AIRPORT   PTCLDY    69  62  78 W8        29.92R
LONG BEACH     CLEAR     69  61  75 NW7       29.92R

CITY           SKY/WX    TMP DP  RH WIND       PRES   REMARKS
AVALON           N/A     68 N/A N/A MISG        N/A
FULLERTON      CLEAR     71  58  63 W3        29.91R
*GETTY CENTER    N/A     63  57  82 W2          N/A
HAWTHORNE      CLEAR     70  63  78 W3        29.92R
*LEO CARRILLO    N/A     66  62  87 NW2         N/A
*LOS ALAMITOS  FAIR      68  60  75 W7        29.92R
*REDONDO BEACH   N/A     68  61  78 CALM      29.91S
SANTA ANA      CLEAR     73  60  63 W3        29.92R
STA MONICA APT CLEAR     69  61  75 SW3       29.92R
*UCLA            N/A     64  59  82 W3        29.90S

$$

CAZ547-548-048-210500-
LA COUNTY VALLEYS AND INLAND EMPIRE


CITY           SKY/WX    TMP DP  RH WIND       PRES   REMARKS
BURBANK        CLEAR     68  58  70 S3        29.92R
VAN NUYS       CLEAR     69  58  67 SE3       29.92R

CITY           SKY/WX    TMP DP  RH WIND       PRES   REMARKS
CORONA AIRPORT CLEAR     70  61  73 W10       29.92R
*CHATSWORTH      N/A     68  60  76 NW3       29.89S
CHINO          CLEAR     69  61  75 W9        29.93R
*CLAREMONT       N/A     65  56  74 W5          N/A
MARCH AFB      CLEAR     70  60  70 NW6       29.94R
*NORTHRIDGE      N/A     68  57  68 CALM        N/A
ONTARIO        PTCLDY    70  60  70 SW9       29.92R
*PASADENA        N/A     68  61  77 CALM        N/A
POMONA         CLEAR     68  59  73 W9        29.96
RIVERSIDE      CLEAR     70  61  73 W7        29.93R
SAN BERNARDINO CLEAR     72  57  60 SW7       29.93R
*SAN GABRIEL     N/A     69  58  67 CALM      29.89R
*SAN RAFAEL HI   N/A     62  62  99 E3          N/A
*SAUGUS          N/A     65  57  76 SW6         N/A
*WHITEMAN AP   NOT AVBL
*WOODLAND HILL   N/A     68  59  73 SW3         N/A

$$

CAZ054-055-210500-
LA AND SAN BERNARDINO COUNTY MOUNTAINS


CITY           SKY/WX    TMP DP  RH WIND       PRES   REMARKS
*ACTON           N/A     70  56  60 S8          N/A
*BIG BEAR AIRP CLEAR     54  43  66 CALM      30.18R
*BIG PINES       N/A     56  44  63 CALM        N/A
*CHILAO          N/A     60  40  47 E3G18       N/A
MT WILSON NWS    N/A     61  32  33 SE9         N/A
SANDBERG       CLEAR     62  54  74 SW13      30.06R
*WARM SPRINGS    N/A     59  58  96 SW3         N/A

$$

CAZ028-029-059-060-099-210500-
ANTELOPE VALLEY AND SURROUNDING AREAS


CITY           SKY/WX    TMP DP  RH WIND       PRES   REMARKS
LANCASTER      CLEAR     72  51  47 W17       29.93R
PALMDALE       CLEAR     75  45  34 SW16      29.92R

CITY           SKY/WX    TMP DP  RH WIND       PRES   REMARKS
29 PALMS       CLEAR     82  54  37 SW6       29.93R
BARSTOW/DAGGET CLEAR     82  50  32 W10       29.86R
BISHOP         CLOUDY    78  41  26 S13       29.99R
CHINA LAKE     MOCLDY    80  54  40 NW8       29.87R
EDWARDS AFB    CLEAR     76  46  33 W16       29.89R
MOJAVE         FAIR      75  50  41 SW13      29.93R
NEEDLES        PTCLDY    95  53  24 SW8       29.78R HX  92
VICTORVILLE    CLEAR     73  50  43 S10       29.95R

$$

CAZ039-040-210500-
VENTURA AND SANTA BARBARA COUNTY COAST


CITY           SKY/WX    TMP DP  RH WIND       PRES   REMARKS
CAMARILLO      CLEAR     69  61  75 SW5       29.92R
NWS OXNARD       N/A     66  61  84 W5        29.92R
OXNARD AIRPORT CLEAR     65  62  90 W5        29.92R
*POINT MUGU    PTCLDY    68  62  81 NW3       29.92R
SBA APT/GOLETA CLEAR     65  61  87 CALM      29.91R
*VENTURA         N/A     67  61  81 CALM      29.96S

$$

CAZ044-045-210500-
VENTURA COUNTY VALLEYS


CITY           SKY/WX    TMP DP  RH WIND       PRES   REMARKS
*SIMI VALLEY     N/A     65  60  82 CALM      29.90R
*OJAI            N/A     63  58  82 CALM      29.87R
*FILLMORE        N/A     66  59  77 CALM      29.84R

$$

CAZ053-210500-
VENTURA COUNTY MOUNTAINS


CITY           SKY/WX    TMP DP  RH WIND       PRES   REMARKS
*ROSE VALLEY     N/A     59  57  94 MISG        N/A

$$

CAZ034-035-036-210500-
CENTRAL COAST AND SANTA YNEZ VALLEY


CITY           SKY/WX    TMP DP  RH WIND       PRES   REMARKS
SAN LUIS OBISP CLOUDY    64  59  83 NW10      29.95R
SANTA MARIA    CLOUDY    66  58  75 NW7       29.95R

CITY           SKY/WX    TMP DP  RH WIND       PRES   REMARKS
*CAL POLY SLO    N/A     64  61  88 W3G9        N/A
*LOMPOC        CLOUDY    64  55  72 NW3       29.96R
*PISMO BEACH     N/A     65  60  83 CALM      29.95R
*SANTA YNEZ    FAIR      63  55  77 W6        29.95R

$$

CAZ037-038-051-210500-
SAN LUIS OBISPO COUNTY INTERIOR AND CUYAMA VALLEY


CITY           SKY/WX    TMP DP  RH WIND       PRES   REMARKS
*CUYAMA          N/A     66  55  68 W6        29.85R
PASO ROBLES    CLEAR     64  56  75 SW10      29.93R

$$

CAZ032-033-061-210500-
SOUTHERN DESERTS


CITY           SKY/WX    TMP DP  RH WIND       PRES   REMARKS
BLYTHE         CLEAR     91  52  26 S13       29.75R
IMPERIAL       CLEAR     87  56  34 W13       29.73R
PALM SPRINGS   CLEAR     88  57  34 NW18G24   29.79R
THERMAL        CLEAR     89  57  33 NW16      29.72R

$$

ELSEWHERE ACROSS THE WESTERN UNITED STATES AND MEXICO


CITY           SKY/WX    TMP DP  RH WIND       PRES   REMARKS
DENVER, CO     MOCLDY    63  50  62 S9        30.33R
GRAND CANYON,  MOCLDY    56  54  93 CALM      30.23R
HONOLULU, HI   MOCLDY    84  72  65 NE8       29.89R
KAHULUI, MAUI  PTCLDY    84  72  65 NW7       29.89R
LAKE TAHOE, CA CLOUDY    61  41  47 S15       30.18R
LAS VEGAS, NV  MOCLDY    87  45  23 NW15      29.83R THUNDER
MAMMOTH LAKES, FAIR      59  37  44 S13G26    30.20R
MEXICO CITY, M PTCLDY    66  54  63 N9        30.30R
PHOENIX, AZ    MOCLDY    90  65  43 SE5       29.83R HX  92
PORTLAND, OR   MOCLDY    82  49  31 E12       29.80S
RENO, NV       CLOUDY    78  42  27 VRB3      30.05R
SALT LAKE CITY CLOUDY    73  52  47 S3        30.06S
SAN DIEGO, CA  PTCLDY    72  60  66 NW5       29.94R
SAN FRANCISCO, PTCLDY    66  59  78 W8        29.94R
SAN JOSE, CA   CLEAR     64  58  80 NW7       29.94R
SEATTLE, WA    CLEAR     65  56  72 N10       29.91F
TIJUANA, MEX   CLEAR     66  57  72 W6        29.95R

$$

STATION/POSITION TIME  TEMP    WIND        PRES    VSBY  WAVE
                       AIR SEA DIR/SP/G                  HT/PER
                 (UTC) (F)     (DEG/KT/KT) (MB)    (MI)  (FT/S)
POINT ARGUELLO B NOT AVBL
WEST SANTA BARBA 0400   64 65  330/ 12/ 16 1012.7R         4/10
POINT CONCEPTION NOT AVBL
EAST SANTA BARBA 0400   65 67  240/  8/ 10 1013.0R
SANTA MONICA BAY 0400   69 72  330/  8/ 10 1012.7R         3/14



USA.gov is the U.S. government's official web portal to all federal, state and local government web resources and services.